Regional Weather Roundup
Issued by NWS

Home | Current Version | Previous Version | Graphics & Text | Print | Product List | Glossary On
Versions: 1 2 3 4 5 6 7 8 9 10 11 12 13 14 15 16 17 18 19 20 21 22 23 24 25 26 27 28 29 30 31 32 33 34 35 36 37 38 39 40 41 42 43 44 45 46 47 48 49 50
000
ASUS43 KFSD 071510
RWRSD

WEATHER ROUNDUP FOR SOUTH DAKOTA
NATIONAL WEATHER SERVICE SIOUX FALLS SD
1000 AM CDT TUE JUL 07 2015

NOTE: "FAIR" INDICATES FEW OR NO CLOUDS BELOW 12,000 FEET WITH NO
SIGNIFICANT WEATHER AND/OR OBSTRUCTIONS TO VISIBILITY.


SDZ001>005-009-010-012>017-071600-
NORTHWEST AND NORTH CENTRAL SOUTH DAKOTA

CITY           SKY/WX    TMP DP  RH WIND       PRES   REMARKS
BUFFALO          N/A     66  55  67 S12       30.05F
FAITH            N/A     65  55  70 SE16      30.14F
MOBRIDGE       SUNNY     65  55  70 SE12      30.16S
$$

SDZ012>016-024>037-041>051-057-063-072>074-071600-
SOUTHWEST AND SOUTH CENTRAL SOUTH DAKOTA

CITY           SKY/WX    TMP DP  RH WIND       PRES   REMARKS
RAPID CTY ARPT MOSUNNY   65  59  81 SE12      30.15S
PIERRE         SUNNY     63  55  75 SE14      30.17S
CUSTER         CLOUDY    58  52  80 S6        30.23S HAZE
ELLSWORTH AFB  SUNNY     67  60  77 S12       30.13F
PHILIP         SUNNY     66  59  78 SE8       30.15F
PINE RIDGE     PTSUNNY   67  55  65 SW13      30.18S
SPEARFISH      FAIR      68  55  64 NE5       30.14S
WINNER         FAIR      66  56  70 SE12      30.20S HAZE
$$

SDZ004>011-016>023-039-040-071600-
NORTHEAST SOUTH DAKOTA

CITY           SKY/WX    TMP DP  RH WIND       PRES   REMARKS
ABERDEEN       SUNNY     62  48  60 E8        30.21R
WATERTOWN      SUNNY     60  45  57 NE13      30.21R
BROOKINGS      MOSUNNY   57  45  62 E8        30.23S
SISSETON         N/A     62  43  49 NE7       30.21S
$$

SDZ017-020-022-023-036>040-048>070-071600-
SOUTHEAST SOUTH DAKOTA

CITY           SKY/WX    TMP DP  RH WIND       PRES   REMARKS
SIOUX FALLS    MOSUNNY   61  46  57 NE14      30.22R
HURON          SUNNY     61  47  59 E10       30.21S
CHAMBERLAIN    SUNNY     62  53  71 E10       30.21R
MITCHELL       SUNNY     62  52  69 E9        30.22S
YANKTON        CLOUDY    61  48  63 E8        30.21R
$$

ABBREVIATIONS USED IN REMARKS
   TC - TEMPERATURE IN CELSIUS
  WCI - WIND CHILL INDEX
   HX - HEAT INDEX
  VSB - VISIBILITY




USA.gov is the U.S. government's official web portal to all federal, state and local government web resources and services.